Tracking 19149 objects as of 20-Apr-2018
HD Live streaming from Space Station
objects crossing your sky now

MOZHAYETS

Track MOZHAYETS now!
10-day predictions
MOZHAYETS is classified as:


NORAD ID: 27560
Int'l Code: 2002-054B
Perigee: 679.5 km
Apogee: 736.0 km
Inclination: 98.2 °
Period: 98.8 minutes
Semi major axis: 7078 km
RCS: 1.03 m2 (large)
Launch date: November 28, 2002
Source: Commonwealth of Independent States (former USSR) (CIS)
Launch site: PLESETSK MISSILE AND SPACE COMPLEX (PKMTR)
aabbcc
Your satellite tracking list
Your tracking list is empty




NASA's NSSDC Master Catalog

Two Line Element Set (TLE):
1 27560U 02054B   18110.21371727  .00000086  00000-0  29166-4 0  9994
2 27560  98.2478 246.2059 0039930 237.6585 242.0108 14.57699247816723
Source of the keplerian elements: AFSPC